When you browse on this site, cookies collect data to enhance your experience and personalize the content and advertising you see.
Visit our Privacy Policy to learn more. By continuing to use the site, you agree to this use of cookies and data.
  • In Lithuania
  • List of Countries
  • For 7 days
  • Water Temperature
  • Satellite Maps
  • Weather Map
  • Weather Widgets
  • user-avatar
    Login

    Hourly Weather Lidinka

    Today, 19 March, Tuesday

    Time Temperature Precipitation Wind Pressure Humidity
    00:00 -1°C° 0 mm 6 mps 750 mmHg 98%
    01:00 -2°C° 0 mm 6 mps 749 mmHg 96%
    02:00 -2°C° 0 mm 6 mps 749 mmHg 94%
    03:00 -2°C° 0 mm 6 mps 749 mmHg 92%
    04:00 -2°C° 0 mm 6 mps 749 mmHg 91%
    05:00 -2°C° 0 mm 6 mps 749 mmHg 90%
    06:00 -2°C° 0 mm 6 mps 748 mmHg 89%
    07:00 -2°C° 0 mm 6 mps 749 mmHg 90%
    08:00 -2°C° 0 mm 6 mps 749 mmHg 90%
    09:00 -1°C° 0 mm 6 mps 749 mmHg 91%
    10:00 -1°C° 0 mm 6 mps 749 mmHg 93%
    11:00 -1°C° 0 mm 6 mps 749 mmHg 96%
    12:00 -1°C° 0 mm 6 mps 749 mmHg 98%
    13:00 +1°C° 0 mm 5 mps 749 mmHg 98%
    14:00 +1°C° 0 mm 5 mps 749 mmHg 98%
    15:00 +1°C° 0 mm 5 mps 749 mmHg 97%
    16:00 0°C° 0 mm 5 mps 749 mmHg 97%
    17:00 0°C° 0 mm 4 mps 749 mmHg 97%
    18:00 0°C° 0 mm 4 mps 749 mmHg 97%
    19:00 0°C° 0 mm 4 mps 749 mmHg 97%
    20:00 0°C° 0 mm 4 mps 750 mmHg 97%
    21:00 0°C° 0 mm 4 mps 750 mmHg 97%
    22:00 0°C° 0.2 mm 4 mps 749 mmHg 97%
    23:00 0°C° 0.2 mm 4 mps 749 mmHg 97%

    Tomorrow, 20 March, Wednesday

    Time Temperature Precipitation Wind Pressure Humidity
    00:00 +1°C° 0.2 mm 3 mps 749 mmHg 97%
    01:00 +1°C° 0.5 mm 3 mps 749 mmHg 98%
    02:00 +1°C° 0.5 mm 3 mps 749 mmHg 98%
    03:00 +1°C° 0.5 mm 3 mps 749 mmHg 98%
    04:00 +1°C° 0.1 mm 3 mps 749 mmHg 98%
    05:00 0°C° 0.1 mm 3 mps 749 mmHg 98%
    06:00 +1°C° 0.1 mm 2 mps 749 mmHg 98%
    07:00 0°C° 0 mm 3 mps 749 mmHg 98%
    08:00 0°C° 0 mm 3 mps 749 mmHg 98%
    09:00 0°C° 0 mm 3 mps 749 mmHg 98%
    10:00 0°C° 0 mm 3 mps 749 mmHg 97%
    11:00 +1°C° 0 mm 3 mps 749 mmHg 96%
    12:00 +1°C° 0 mm 3 mps 750 mmHg 95%
    13:00 +1°C° 0 mm 3 mps 750 mmHg 95%
    14:00 +1°C° 0 mm 3 mps 750 mmHg 95%
    15:00 +1°C° 0 mm 3 mps 750 mmHg 95%
    16:00 0°C° 0 mm 3 mps 750 mmHg 96%
    17:00 0°C° 0 mm 3 mps 750 mmHg 96%
    18:00 0°C° 0 mm 3 mps 750 mmHg 97%
    19:00 -1°C° 0 mm 3 mps 750 mmHg 94%
    20:00 -1°C° 0 mm 3 mps 750 mmHg 92%
    21:00 -1°C° 0 mm 3 mps 750 mmHg 90%
    22:00 -1°C° 0 mm 3 mps 750 mmHg 90%
    23:00 -2°C° 0 mm 3 mps 750 mmHg 89%

    Day after tomorrow, 21 March, Thursday

    Time Temperature Precipitation Wind Pressure Humidity
    00:00 -2°C° 0 mm 3 mps 749 mmHg 89%
    01:00 -2°C° 0 mm 3 mps 749 mmHg 89%
    02:00 -2°C° 0 mm 3 mps 749 mmHg 88%
    03:00 -2°C° 0 mm 3 mps 748 mmHg 88%
    04:00 -2°C° 0 mm 3 mps 748 mmHg 87%
    05:00 -3°C° 0 mm 4 mps 747 mmHg 86%
    06:00 -3°C° 0 mm 4 mps 746 mmHg 85%
    07:00 -3°C° 0.1 mm 4 mps 746 mmHg 86%
    08:00 -4°C° 0.1 mm 5 mps 745 mmHg 88%
    09:00 -4°C° 0.1 mm 5 mps 745 mmHg 89%
    10:00 -2°C° 0.3 mm 5 mps 745 mmHg 90%
    11:00 -2°C° 0.3 mm 5 mps 744 mmHg 91%
    12:00 -1°C° 0.3 mm 5 mps 744 mmHg 91%
    13:00 -1°C° 0.5 mm 5 mps 744 mmHg 93%
    14:00 0°C° 0.5 mm 5 mps 744 mmHg 94%
    15:00 0°C° 0.5 mm 5 mps 744 mmHg 95%
    16:00 0°C° 0.1 mm 4 mps 744 mmHg 92%
    17:00 0°C° 0.1 mm 4 mps 744 mmHg 90%
    18:00 0°C° 0.1 mm 4 mps 744 mmHg 88%
    19:00 -1°C° 0 mm 4 mps 744 mmHg 89%
    20:00 -1°C° 0 mm 4 mps 745 mmHg 90%
    21:00 -2°C° 0 mm 4 mps 745 mmHg 90%
    22:00 -2°C° 0 mm 4 mps 745 mmHg 91%
    23:00 -2°C° 0 mm 4 mps 745 mmHg 92%

    22 March, Friday

    Time Temperature Precipitation Wind Pressure Humidity
    00:00 -2°C° 0 mm 4 mps 746 mmHg 94%
    01:00 -2°C° 0 mm 4 mps 746 mmHg 94%
    02:00 -2°C° 0 mm 4 mps 746 mmHg 94%
    03:00 -2°C° 0 mm 4 mps 746 mmHg 94%
    04:00 -1°C° 0 mm 3 mps 747 mmHg 95%
    05:00 -2°C° 0 mm 3 mps 747 mmHg 95%
    06:00 -3°C° 0 mm 2 mps 747 mmHg 96%
    07:00 -2°C° 0 mm 3 mps 747 mmHg 95%
    08:00 -2°C° 0 mm 3 mps 748 mmHg 94%
    09:00 -1°C° 0 mm 3 mps 748 mmHg 93%
    10:00 -1°C° 0 mm 2 mps 748 mmHg 93%
    11:00 -1°C° 0 mm 2 mps 748 mmHg 93%
    12:00 +1°C° 0 mm 2 mps 748 mmHg 94%
    13:00 +1°C° 0 mm 2 mps 748 mmHg 93%
    14:00 0°C° 0 mm 3 mps 747 mmHg 92%
    15:00 +1°C° 0 mm 3 mps 747 mmHg 92%
    16:00 +1°C° 0 mm 3 mps 747 mmHg 91%
    17:00 0°C° 0 mm 3 mps 747 mmHg 89%
    18:00 -1°C° 0 mm 4 mps 746 mmHg 88%
    19:00 -1°C° 0 mm 4 mps 746 mmHg 88%
    20:00 -1°C° 0 mm 4 mps 746 mmHg 88%
    21:00 -1°C° 0 mm 4 mps 746 mmHg 89%
    22:00 0°C° 0 mm 5 mps 745 mmHg 91%
    23:00 0°C° 0 mm 5 mps 744 mmHg 93%

    23 March, Saturday

    Time Temperature Precipitation Wind Pressure Humidity
    00:00 -1°C° 0 mm 6 mps 743 mmHg 95%
    01:00 +1°C° 0.3 mm 6 mps 742 mmHg 96%
    02:00 +1°C° 0.3 mm 6 mps 741 mmHg 96%
    03:00 0°C° 0.3 mm 7 mps 741 mmHg 96%
    04:00 0°C° 0.6 mm 7 mps 740 mmHg 96%
    05:00 +2°C° 0.6 mm 7 mps 739 mmHg 96%
    06:00 +1°C° 0.6 mm 8 mps 738 mmHg 95%
    07:00 +1°C° 0.2 mm 8 mps 738 mmHg 93%
    08:00 +3°C° 0.2 mm 7 mps 738 mmHg 92%
    09:00 +3°C° 0.2 mm 7 mps 738 mmHg 90%
    10:00 +2°C° 0 mm 8 mps 738 mmHg 82%
    11:00 +1°C° 0 mm 9 mps 738 mmHg 74%
    12:00 +1°C° 0 mm 10 mps 738 mmHg 66%
    13:00 +1°C° 0 mm 10 mps 738 mmHg 65%
    14:00 0°C° 0 mm 10 mps 738 mmHg 64%
    15:00 0°C° 0 mm 10 mps 739 mmHg 63%
    16:00 -1°C° 0 mm 9 mps 739 mmHg 63%
    17:00 -1°C° 0 mm 9 mps 739 mmHg 64%
    18:00 -1°C° 0 mm 9 mps 740 mmHg 64%
    19:00 -2°C° 0 mm 8 mps 740 mmHg 66%
    20:00 -2°C° 0 mm 8 mps 740 mmHg 67%
    21:00 -4°C° 0 mm 8 mps 741 mmHg 68%
    22:00 -4°C° 0 mm 8 mps 741 mmHg 67%
    23:00 -4°C° 0 mm 8 mps 741 mmHg 67%

    24 March, Sunday

    Time Temperature Precipitation Wind Pressure Humidity
    00:00 -4°C° 0 mm 8 mps 741 mmHg 66%
    01:00 -4°C° 0 mm 8 mps 742 mmHg 67%
    02:00 -4°C° 0 mm 7 mps 742 mmHg 67%
    03:00 -4°C° 0 mm 7 mps 742 mmHg 68%
    04:00 -4°C° 0 mm 7 mps 743 mmHg 69%
    05:00 -4°C° 0 mm 7 mps 743 mmHg 69%
    06:00 -4°C° 0 mm 6 mps 743 mmHg 70%
    07:00 -4°C° 0 mm 6 mps 743 mmHg 67%
    08:00 -4°C° 0 mm 6 mps 743 mmHg 65%
    09:00 -3°C° 0 mm 6 mps 743 mmHg 63%
    10:00 -1°C° 0 mm 5 mps 743 mmHg 58%
    11:00 0°C° 0 mm 5 mps 743 mmHg 53%
    12:00 +1°C° 0 mm 5 mps 742 mmHg 48%
    13:00 +1°C° 0 mm 5 mps 742 mmHg 49%
    14:00 +2°C° 0 mm 5 mps 741 mmHg 50%
    15:00 +2°C° 0 mm 5 mps 740 mmHg 50%
    16:00 +2°C° 0.3 mm 5 mps 739 mmHg 57%
    17:00 +1°C° 0.3 mm 5 mps 738 mmHg 65%
    18:00 0°C° 0.3 mm 4 mps 737 mmHg 72%
    19:00 -1°C° 0.7 mm 6 mps 736 mmHg 77%
    20:00 -1°C° 0.7 mm 7 mps 734 mmHg 82%
    21:00 -1°C° 0.7 mm 8 mps 732 mmHg 88%
    22:00 0°C° 0.4 mm 8 mps 731 mmHg 89%
    23:00 +1°C° 0.4 mm 8 mps 730 mmHg 91%
    Show more